Flag for U.S.A. Weather past 2 weeks in Boise, Idaho, U.S.A.

Now
29 °F

Clear.


Feels Like: 20 °F
Forecast: 30 / 46 °F
Wind: 10 mph from Northwest

Location: Boise Air Terminal

Current Time: Mar 3, 2015 at 8:16:16 AM

Latest Report: Mar 3, 2015 at 6:53 AM


Visibility: 10 mi

Pressure: 30.01 "Hg

Humidity: 66%

Dew point: 19 °F

Location of BoiseLocation

Historic Weather in Boise — Graph

°F

Boise temperature yesterday

Maximum temperature yesterday: 49 °F (at 3:53 PM)
Minimum temperature yesterday: 27 °F (at 6:53 AM)
Average temperature yesterday: 39 °F

Past Weeks' High & Low Weather Summary

 TemperatureHumidityPressure
High59 °F (Feb 19, 3:53 PM)89% (Feb 21, 5:53 AM)30.46 "Hg (Feb 21, 5:53 AM)
Low22 °F (Feb 23, 4:53 AM)23% (Feb 24, 4:53 PM)29.63 "Hg (Feb 27, 4:53 PM)
Average39 °F59%30.12 "Hg
* Reported Feb 16 6:53 AM — Mar 3 6:53 AM, Boise, Weather by CustomWeather, © 2015

Note: Actual official high and low records may vary slightly from our data, if they occured in-between our weather recording intervals... More about our weather records

Advertising

Boise weather history for previous 24 hours

 ConditionsComfort  
Time TempWeatherWind HumidityBarometerVisibility
6:53 AM
Tue, Mar 3
29 °FClear.10 mph66%30.01 "Hg10 mi
5:53 AM30 °FClear.14 mph69%29.98 "Hg10 mi
4:53 AM31 °FClear.12 mph69%29.96 "Hg10 mi
3:53 AM33 °FOvercast.16 mph66%29.92 "Hg10 mi
2:53 AM34 °FOvercast.10 mph67%29.91 "Hg10 mi
1:53 AM35 °FOvercast.15 mph67%29.89 "Hg10 mi
12:53 AM35 °FMostly cloudy.12 mph64%29.88 "Hg10 mi
11:53 PM
Mon, Mar 2
35 °FMostly cloudy.10 mph64%29.86 "Hg10 mi
10:53 PM37 °FOvercast.12 mph60%29.84 "Hg10 mi
9:53 PM41 °FOvercast.9 mph53%29.82 "Hg10 mi
8:53 PM42 °FOvercast.20 mph47%29.79 "Hg10 mi
7:53 PM43 °FPassing clouds.7 mph40%29.78 "Hg10 mi
6:53 PM44 °FSunny.9 mph35%29.76 "Hg10 mi
5:53 PM46 °FPassing clouds.12 mph35%29.74 "Hg10 mi
4:53 PM47 °FSunny.13 mph36%29.74 "Hg10 mi
3:53 PM49 °FSunny.14 mph35%29.74 "Hg10 mi
2:53 PM48 °FSunny.12 mph34%29.75 "Hg10 mi
1:53 PM47 °FSunny.5 mph34%29.77 "Hg10 mi
12:53 PM45 °FPartly sunny.8 mph38%29.81 "Hg10 mi
11:53 AM44 °FSunny.3 mph37%29.83 "Hg10 mi
10:53 AM40 °FSunny.No wind43%29.85 "Hg10 mi
9:53 AM37 °FPartly sunny.8 mph44%29.88 "Hg10 mi
8:53 AM34 °FScattered clouds.8 mph61%29.89 "Hg10 mi
Weather by CustomWeather, © 2015

See weather overviewHow to use our weather pages